When you browse on this site, cookies collect data to enhance your experience and personalize the content and advertising you see.
Visit our Privacy Policy to learn more. By continuing to use the site, you agree to this use of cookies and data.

Hourly Weather Sarga

Today, 6 July, Monday

Time Temperature Precipitation Wind Pressure Humidity
00:00 +21°C° 0.5 mm 3 mps 745 mmHg 89%
01:00 +20°C° 0.1 mm 2 mps 745 mmHg 89%
02:00 +20°C° 0.1 mm 2 mps 745 mmHg 89%
03:00 +21°C° 0.1 mm 1 mps 745 mmHg 89%
04:00 +21°C° 0.4 mm 1 mps 745 mmHg 90%
05:00 +21°C° 0.4 mm 1 mps 745 mmHg 91%
06:00 +22°C° 0.4 mm 1 mps 745 mmHg 91%
07:00 +23°C° 0.1 mm 1 mps 745 mmHg 87%
08:00 +24°C° 0.1 mm 2 mps 745 mmHg 82%
09:00 +26°C° 0.1 mm 2 mps 745 mmHg 78%
10:00 +26°C° 0 mm 2 mps 745 mmHg 74%
11:00 +27°C° 0 mm 2 mps 745 mmHg 70%
12:00 +28°C° 0 mm 2 mps 745 mmHg 66%
13:00 +28°C° 0 mm 2 mps 745 mmHg 65%
14:00 +29°C° 0 mm 2 mps 745 mmHg 64%
15:00 +29°C° 0 mm 2 mps 745 mmHg 63%
16:00 +29°C° 0 mm 1 mps 745 mmHg 67%
17:00 +28°C° 0 mm 1 mps 745 mmHg 70%
18:00 +28°C° 0 mm 1 mps 745 mmHg 74%
19:00 +27°C° 0 mm 1 mps 745 mmHg 77%
20:00 +23°C° 0 mm 0 mps 745 mmHg 80%
21:00 +21°C° 0 mm 0 mps 745 mmHg 83%
22:00 +21°C° 0 mm 0 mps 745 mmHg 85%
23:00 +20°C° 0 mm 0 mps 745 mmHg 86%

Tomorrow, 7 July, Tuesday

Time Temperature Precipitation Wind Pressure Humidity
00:00 +22°C° 0 mm 1 mps 746 mmHg 88%
01:00 +22°C° 0 mm 1 mps 746 mmHg 89%
02:00 +21°C° 0 mm 1 mps 746 mmHg 90%
03:00 +21°C° 0 mm 1 mps 746 mmHg 91%
04:00 +22°C° 0 mm 1 mps 746 mmHg 90%
05:00 +23°C° 0 mm 2 mps 746 mmHg 89%
06:00 +23°C° 0 mm 2 mps 746 mmHg 88%
07:00 +25°C° 0 mm 2 mps 746 mmHg 84%
08:00 +26°C° 0 mm 2 mps 746 mmHg 81%
09:00 +28°C° 0 mm 3 mps 746 mmHg 77%
10:00 +29°C° 0.3 mm 3 mps 746 mmHg 72%
11:00 +30°C° 0.3 mm 2 mps 746 mmHg 67%
12:00 +31°C° 0.3 mm 2 mps 746 mmHg 62%
13:00 +31°C° 0 mm 2 mps 746 mmHg 61%
14:00 +31°C° 0 mm 2 mps 746 mmHg 60%
15:00 +32°C° 0 mm 2 mps 746 mmHg 58%
16:00 +31°C° 0 mm 2 mps 745 mmHg 63%
17:00 +31°C° 0 mm 2 mps 745 mmHg 68%
18:00 +30°C° 0 mm 2 mps 745 mmHg 72%
19:00 +28°C° 0 mm 3 mps 745 mmHg 75%
20:00 +27°C° 0 mm 3 mps 745 mmHg 79%
21:00 +25°C° 0 mm 3 mps 745 mmHg 82%
22:00 +25°C° 0 mm 3 mps 745 mmHg 82%
23:00 +24°C° 0 mm 3 mps 745 mmHg 83%

Day after tomorrow, 8 July, Wednesday

Time Temperature Precipitation Wind Pressure Humidity
00:00 +24°C° 0 mm 3 mps 745 mmHg 83%
01:00 +22°C° 0 mm 3 mps 745 mmHg 82%
02:00 +22°C° 0 mm 3 mps 745 mmHg 82%
03:00 +22°C° 0 mm 3 mps 745 mmHg 81%
04:00 +22°C° 0 mm 3 mps 745 mmHg 81%
05:00 +22°C° 0 mm 3 mps 745 mmHg 80%
06:00 +23°C° 0 mm 4 mps 745 mmHg 79%
07:00 +25°C° 0 mm 4 mps 745 mmHg 76%
08:00 +27°C° 0 mm 5 mps 745 mmHg 72%
09:00 +28°C° 0 mm 5 mps 745 mmHg 69%
10:00 +30°C° 0 mm 5 mps 745 mmHg 66%
11:00 +32°C° 0 mm 5 mps 745 mmHg 64%
12:00 +33°C° 0 mm 5 mps 745 mmHg 61%
13:00 +34°C° 0 mm 5 mps 745 mmHg 61%
14:00 +34°C° 0 mm 5 mps 745 mmHg 61%
15:00 +35°C° 0 mm 5 mps 745 mmHg 61%
16:00 +34°C° 0 mm 4 mps 745 mmHg 64%
17:00 +33°C° 0 mm 4 mps 745 mmHg 68%
18:00 +32°C° 0 mm 4 mps 745 mmHg 72%
19:00 +30°C° 0 mm 4 mps 745 mmHg 75%
20:00 +28°C° 0 mm 3 mps 745 mmHg 78%
21:00 +27°C° 0 mm 3 mps 745 mmHg 81%
22:00 +26°C° 0 mm 3 mps 745 mmHg 79%
23:00 +25°C° 0 mm 3 mps 745 mmHg 77%

9 July, Thursday

Time Temperature Precipitation Wind Pressure Humidity
00:00 +25°C° 0 mm 4 mps 745 mmHg 75%
01:00 +23°C° 0 mm 4 mps 745 mmHg 77%
02:00 +24°C° 0 mm 3 mps 745 mmHg 79%
03:00 +22°C° 0 mm 3 mps 745 mmHg 81%
04:00 +24°C° 0 mm 3 mps 745 mmHg 82%
05:00 +24°C° 0 mm 3 mps 745 mmHg 82%
06:00 +24°C° 0 mm 3 mps 745 mmHg 82%
07:00 +26°C° 0 mm 4 mps 745 mmHg 78%
08:00 +27°C° 0 mm 4 mps 745 mmHg 74%
09:00 +28°C° 0 mm 5 mps 745 mmHg 70%
10:00 +29°C° 0.2 mm 5 mps 745 mmHg 68%
11:00 +30°C° 0.2 mm 5 mps 745 mmHg 66%
12:00 +30°C° 0.2 mm 5 mps 745 mmHg 63%
13:00 +32°C° 0.3 mm 5 mps 744 mmHg 63%
14:00 +32°C° 0.3 mm 5 mps 744 mmHg 62%
15:00 +32°C° 0.3 mm 5 mps 744 mmHg 62%
16:00 +30°C° 0.1 mm 5 mps 743 mmHg 65%
17:00 +29°C° 0.1 mm 5 mps 743 mmHg 68%
18:00 +28°C° 0.1 mm 5 mps 743 mmHg 71%
19:00 +27°C° 0.6 mm 5 mps 742 mmHg 76%
20:00 +25°C° 0.6 mm 4 mps 742 mmHg 80%
21:00 +24°C° 0.6 mm 3 mps 742 mmHg 84%
22:00 +22°C° 0.9 mm 4 mps 742 mmHg 86%
23:00 +22°C° 0.9 mm 4 mps 741 mmHg 88%

10 July, Friday

Time Temperature Precipitation Wind Pressure Humidity
00:00 +21°C° 0.9 mm 4 mps 741 mmHg 89%
01:00 +21°C° 0 mm 4 mps 741 mmHg 90%
02:00 +20°C° 0 mm 5 mps 741 mmHg 91%
03:00 +20°C° 0 mm 5 mps 741 mmHg 92%
04:00 +19°C° 0 mm 5 mps 742 mmHg 92%
05:00 +19°C° 0 mm 5 mps 742 mmHg 93%
06:00 +19°C° 0 mm 5 mps 743 mmHg 93%
07:00 +17°C° 0 mm 5 mps 743 mmHg 91%
08:00 +17°C° 0 mm 5 mps 744 mmHg 88%
09:00 +17°C° 0 mm 5 mps 744 mmHg 86%
10:00 +17°C° 0 mm 6 mps 745 mmHg 84%
11:00 +17°C° 0 mm 6 mps 746 mmHg 82%
12:00 +17°C° 0 mm 6 mps 746 mmHg 80%
13:00 +19°C° 0.1 mm 6 mps 747 mmHg 77%
14:00 +18°C° 0.1 mm 7 mps 747 mmHg 75%
15:00 +18°C° 0.1 mm 7 mps 748 mmHg 73%
16:00 +19°C° 0 mm 6 mps 748 mmHg 74%
17:00 +17°C° 0 mm 5 mps 749 mmHg 75%
18:00 +17°C° 0 mm 5 mps 749 mmHg 76%
19:00 +17°C° 0 mm 3 mps 750 mmHg 80%
20:00 +16°C° 0 mm 2 mps 750 mmHg 85%
21:00 +14°C° 0 mm 1 mps 750 mmHg 89%
22:00 +14°C° 0 mm 1 mps 751 mmHg 89%
23:00 +14°C° 0 mm 2 mps 751 mmHg 89%

11 July, Saturday

Time Temperature Precipitation Wind Pressure Humidity
00:00 +13°C° 0 mm 2 mps 751 mmHg 89%
01:00 +13°C° 0 mm 2 mps 752 mmHg 89%
02:00 +13°C° 0 mm 2 mps 752 mmHg 89%
03:00 +13°C° 0 mm 2 mps 752 mmHg 89%
04:00 +13°C° 0 mm 2 mps 752 mmHg 87%
05:00 +13°C° 0 mm 3 mps 753 mmHg 86%
06:00 +14°C° 0 mm 3 mps 753 mmHg 84%
07:00 +16°C° 0 mm 3 mps 753 mmHg 80%
08:00 +18°C° 0 mm 3 mps 753 mmHg 76%
09:00 +19°C° 0 mm 3 mps 753 mmHg 72%
10:00 +20°C° 0 mm 3 mps 753 mmHg 69%
11:00 +21°C° 0 mm 4 mps 753 mmHg 66%
12:00 +22°C° 0 mm 4 mps 753 mmHg 63%
13:00 +22°C° 0 mm 4 mps 753 mmHg 62%
14:00 +22°C° 0 mm 4 mps 753 mmHg 62%
15:00 +23°C° 0 mm 4 mps 753 mmHg 62%
16:00 +22°C° 0 mm 3 mps 753 mmHg 65%
17:00 +22°C° 0 mm 3 mps 752 mmHg 69%
18:00 +22°C° 0 mm 3 mps 752 mmHg 73%
19:00 +20°C° 0 mm 2 mps 752 mmHg 74%
20:00 +18°C° 0 mm 2 mps 752 mmHg 76%
21:00 +17°C° 0 mm 2 mps 752 mmHg 77%
22:00 +16°C° 0 mm 2 mps 752 mmHg 78%
23:00 +15°C° 0 mm 2 mps 752 mmHg 80%
Show more